Lapse_Rate
5.7 5.8 5.9 6.2 6.4 6.6 6.9 6.9 7.0 7.2 7.3 7.1 6.8 6.7 6.6 6.7 6.4 6.3 6.0 5.9 5.9 6.1
5.8 6.0 6.1 6.3 6.5 6.7 6.8 6.7 6.9 7.2 7.1 6.8 6.5 6.4 6.4 6.6 6.6 6.3 5.7 5.5 5.5 5.5
6.0 6.1 6.1 6.4 6.7 6.9 6.8 6.8 7.0 6.9 6.6 6.2 6.2 6.2 6.1 6.2 6.3 6.2 5.4 5.1 5.2 5.2
6.1 6.1 6.3 6.6 6.7 6.9 6.7 6.7 6.5 6.3 6.0 5.7 5.9 5.9 5.8 6.0 5.8 5.5 5.2 5.0 4.8 4.9
6.4 6.2 6.3 6.6 6.7 6.9 6.5 6.5 6.2 6.3 6.1 5.8 5.8 5.7 5.8 6.0 6.0 5.4 5.6 5.3 4.9 5.0
6.2 6.2 6.4 6.5 6.7 6.9 6.4 6.5 6.2 6.1 6.0 5.9 5.8 5.8 5.8 6.0 6.3 5.9 5.7 5.4 5.4 5.3
6.1 6.3 6.5 6.8 6.7 6.7 6.4 6.1 5.9 5.9 5.8 6.0 6.0 6.1 6.2 6.3 6.3 6.2 6.1 6.1 6.0 5.7
6.3 6.5 6.6 6.7 6.8 6.3 6.0 5.9 5.9 6.1 6.2 6.4 6.6 6.7 6.7 6.6 6.7 6.5 6.2 6.1 6.1 6.2
6.4 6.5 6.5 6.7 6.4 5.9 6.0 6.2 6.4 6.8 6.8 7.0 6.9 6.8 6.8 6.9 7.0 7.0 6.9 6.7 6.4 6.4
6.5 6.5 6.7 6.4 6.0 6.0 6.3 6.6 6.9 7.2 7.3 7.0 6.8 6.8 7.0 7.0 7.0 6.9 6.8 6.7 6.7 6.5
6.5 6.6 6.4 6.3 6.2 6.4 6.5 6.7 7.0 7.2 7.1 7.0 7.0 7.2 7.1 7.1 7.0 6.9 6.9 6.7 6.6 6.5
6.5 6.5 6.5 6.4 6.4 6.4 6.5 6.5 6.6 6.8 7.0 7.1 7.1 7.2 7.1 7.0 6.8 6.7 6.5 6.5 6.5 6.5
6.6 6.5 6.4 6.5 6.4 6.5 6.4 6.4 6.5 6.9 7.0 7.2 7.0 6.9 6.7 6.7 6.6 6.4 6.3 6.1 6.1 6.1
6.5 6.5 6.6 6.5 6.5 6.5 6.4 6.7 6.9 7.0 6.9 6.8 6.7 6.6 6.6 6.5 6.4 6.2 6.0 5.9 5.9 5.9
Wind_Speed
6 4 3 5 4 3 3 4 9 10 11 13 14 12 10 6 6 7 7 10 8 6
4 5 4 4 4 3 3 3 7 11 9 11 12 13 8 6 8 7 8 9 9 7
5 4 4 3 4 5 6 9 9 9 10 9 11 12 9 8 9 8 8 7 10 9
5 4 4 4 5 6 8 9 8 8 7 8 9 9 7 8 10 11 11 10 11 11
6 5 5 6 6 9 8 12 8 9 8 8 9 8 8 10 10 11 10 11 11 12
6 6 6 7 8 9 8 8 10 8 8 8 8 7 9 10 9 10 11 10 12 12
6 7 7 7 8 9 9 8 8 8 7 7 8 9 10 10 10 10 10 10 10 12
7 8 8 8 9 7 8 7 9 8 8 7 8 6 9 9 10 10 10 11 11 12
8 8 8 8 8 8 7 7 8 8 9 8 8 18 19 10 8 10 11 11 10 10
8 8 8 8 8 8 7 7 7 7 6 9 9 16 18 16 7 8 8 8 9 11
8 8 8 8 7 6 5 4 3 5 6 6 10 17 18 17 9 7 8 8 9 7
8 8 8 6 5 5 7 3 4 3 6 7 5 18 17 10 5 6 7 7 8 7
8 8 7 6 7 3 4 4 4 5 5 13 5 18 18 12 3 5 4 6 7 23
8 7 6 5 4 8 8 5 3 3 4 6 8 8 15 15 3 2 3 5 5 7
Wind_Direction
67 71 59 56 45 25 14 26 21 27 25 23 18 8 21 23 24 22 24 14 3 349
90 89 78 68 64 33 349 24 53 37 28 26 25 12 29 26 24 35 23 15 3 3
118 113 107 98 79 50 7 44 44 36 26 17 25 26 32 37 28 34 33 21 5 4
142 127 98 67 57 54 59 61 56 35 23 14 25 23 44 53 39 32 47 24 8 4
102 90 83 68 63 60 69 54 53 45 30 21 24 21 44 46 39 42 38 28 16 9
96 91 83 71 65 61 80 64 48 41 34 22 19 25 69 54 45 44 40 28 22 17
95 93 85 80 72 66 77 65 54 41 29 25 39 53 67 58 53 50 44 33 28 31
102 95 89 82 74 71 70 73 55 49 37 34 41 69 66 62 53 48 46 40 34 34
102 101 98 91 83 78 72 67 60 47 50 44 57 72 72 71 60 50 43 42 33 40
113 110 103 100 97 91 81 73 55 42 41 59 62 70 71 68 58 49 36 26 31 37
120 115 111 107 110 100 88 67 50 37 29 51 66 72 72 67 51 39 30 24 27 21
128 121 117 121 128 111 102 67 42 20 39 39 55 72 73 55 34 26 19 23 20 39
128 125 128 139 135 116 96 89 71 40 20 46 15 80 72 60 33 29 18 16 9 43
129 132 140 150 116 130 115 97 67 55 18 24 34 58 79 73 59 58 30 36 24 41